Powrót do katalogu

FAST 2

USA 228

AktywnyMilitariaLEO
NORAD 37380·PAYLOAD·🇺🇸 United States

Wystrzelony Nov 20, 2010 z Kodiak Launch Complex

Loading…

Następne Przeloty (najbliższe 24 godziny)

TLE

ŚwieżeSource: Space-Track

Epoka: Sep 14, 2026, 13:54 UTC

1 37380U 10062M   26257.57964133  .00000483  00000-0  63904-4 0  9991
2 37380  71.9715 305.8456 0017222 300.2895  59.6566 14.84761415379046

Śledź FAST 2 w czasie rzeczywistym z AllMySat

Download on the App Store